Terminal Aerodrome Forecast
Issued by NWS

Home | Current Version | Previous Version | Text Only | Print | Product List | Glossary On
Versions: 1 2 3 4 5 6 7 8 9 10 11 12 13 14 15 16 17 18 19 20 21 22 23
000
FTUS43 KJKL 191120
TAFSME
TAF
KSME 191120Z 1912/2012 00000KT 6SM BR BKN008
     FM191400 32005KT P6SM VCSH BKN035
     FM191800 32008KT P6SM FEW250=

USA.gov is the U.S. government's official web portal to all federal, state and local government web resources and services.